[[{"header":{"parameterUnit":"m.s-1","parameterCategory":1,"la1":30.2991,"la2":30.254,"lo1":-89.0895,"lo2":-89.0444,"dy":0.0017,"dx":0.0017,"nx":28,"ny":28,"refTime":"2024-06-15T09:00:00:Z","depth":0,"parameterNumber":2,"parameterNumberName":"U-component_of_WINDS"},"data":[0,0,0,0,0,0,0,0,0,0,0,0,0,0,0,0,0,0,0,0,0,0,0,0,0,0,0,0,0,0,0,0,0,0,0,0,0,0,0,0,0,0,0,0,0,0,0,0,0,0,0,0,0,0,0,0,0,0,-3.9146,-3.9147,0,-3.9301,-3.9302,-3.9304,-3.9304,-3.9302,-3.93,-3.9298,-3.9463,-3.9469,-3.9476,0,0,0,0,0,0,0,0,0,0,0,0,0,-3.8855,-3.886,-3.9145,-3.9147,-3.9149,-3.93,-3.9303,-3.9305,-3.9304,-3.9302,-3.9299,-3.9297,-3.9461,-3.9469,-3.9476,0,0,0,0,0,0,0,0,0,0,0,0,0,-3.8993,-3.8862,-3.9145,-3.9167,-3.9171,-3.93,-3.9303,-3.9305,-3.9305,-3.9302,-3.9299,-3.9296,-3.9459,-3.9468,-3.9477,-3.9597,0,0,-3.9506,-3.951,0,0,0,0,0,0,0,0,-3.8985,-3.9003,-3.9162,-3.9166,-3.917,-3.928,-3.9261,-3.9403,-3.9305,-3.9254,-3.9298,-3.9294,-3.9405,-3.9419,-3.9455,-3.9605,-3.9612,-3.9507,-3.9513,-3.9517,-3.952,0,0,0,0,0,0,0,-3.8975,-3.8997,-3.9207,-3.9164,-3.9169,-3.9171,-3.9187,-3.9288,-3.9345,-3.9258,-3.9259,-3.9277,-3.9407,-3.9446,-3.9459,-3.9614,-3.9507,-3.9515,-3.9521,-3.9525,-3.9869,-3.9872,0,0,0,0,0,0,-3.896,-3.8989,-3.9202,-3.9212,-3.9068,-3.9179,-3.9197,-3.9248,-3.9344,-3.9356,-3.9279,-3.9276,-3.9431,-3.9448,-3.9465,-3.9608,-3.9517,-3.9526,-3.9531,-3.9865,-3.9869,-3.9873,0,0,0,0,0,0,-3.8954,-3.8979,-3.9196,-3.91,-3.9128,-3.9187,-3.9244,-3.9252,-3.9291,-3.936,-3.937,-3.9308,-3.9429,-3.9451,-3.9563,-3.9614,-3.953,-3.9539,-3.9861,-3.9866,-3.9871,-3.9898,0,0,0,0,0,0,-3.8946,-3.8977,-3.9022,-3.9101,-3.9133,-3.929,-3.9247,-3.9258,-3.9307,-3.9304,-3.9389,-3.9401,-3.9429,-3.9549,-3.9573,-3.9626,-3.9546,-3.9857,-3.9863,-3.987,-3.9893,-3.9904,-3.9913,0,0,0,0,0,-3.8935,-3.9025,-3.9024,-3.905,-3.919,-3.9293,-3.9311,-3.934,-3.9311,-3.9357,-3.9401,-3.9398,-3.9606,-3.956,-3.9587,-3.9644,-3.9854,-3.9862,-3.9869,-3.9889,-3.9902,-3.9913,0,0,0,0,0,0,-3.8953,-3.9036,-3.9035,-3.9153,-3.9216,-3.9292,-3.9351,-3.9353,-3.9427,-3.9421,-3.9456,-3.9475,-3.9586,-3.9627,-3.9575,-3.9764,-3.9726,-3.974,-3.9732,-3.9745,-3.9755,-3.9741,-3.9554,0,0,0,0,0,-3.897,-3.9044,-3.9115,-3.9212,-3.9243,-3.9292,-3.9338,-3.9354,-3.9421,-3.9448,-3.95,-3.9567,-3.9647,-3.9699,-3.9777,-3.9901,-3.9918,-3.9953,-3.9963,-3.9971,-3.9981,-4.0047,-4.0062,-3.9899,-3.9899,-3.9898,0,0,-3.9007,-3.9062,-3.9107,-3.9217,-3.9267,-3.9344,-3.9314,-3.9398,-3.9456,-3.9462,-3.9568,-3.961,-3.9687,-3.9804,-3.9859,-3.9842,-4.0031,-3.9981,-3.9986,-3.9992,-4.0057,-4.0072,-4.0086,-3.9904,-3.9903,-3.9902,0,0,-3.9112,-3.9162,-3.9247,-3.9297,-3.9373,-3.9405,-3.9425,-3.9502,-3.9528,-3.9636,-3.9641,-3.9713,-3.9851,-3.9904,-3.9949,-4.0075,-4.0075,-4.0101,-4.0151,-4.0215,-4.0228,-4.024,-4.0282,-4.0297,-4.0111,-4.0111,-4.0111,0,-3.9149,-3.9263,-3.9291,-3.9374,-3.9422,-3.9429,-3.9515,-3.9564,-3.9662,-3.9696,-3.9675,-3.9846,-3.99,-4.0028,-4.0058,-4.0096,-4.012,-4.0089,-4.0224,-4.0236,-4.0247,-4.0287,-4.0303,-4.0114,-4.0113,-4.0113,-4.0113,0,-3.9303,-3.9383,-3.9444,-3.9534,-3.9589,-3.9674,-3.9716,-3.9769,-3.9781,-3.9816,-3.9925,-3.9989,-4.0078,-4.0111,-4.0125,-4.0242,-4.0228,-4.0216,-4.0178,-4.0264,-4.0302,-4.0318,-4.0117,-4.0116,-4.0115,-4.0115,0,0,-3.9422,-3.9526,-3.9547,-3.9588,-3.9672,-3.9735,-3.9821,-3.9906,-3.9949,-4.0018,-4.009,-4.0206,-4.0194,-4.0246,-4.0267,-4.0323,-4.0415,-4.0304,-4.0306,-4.0319,-4.0545,-4.0551,-4.0568,-4.0417,-4.042,-4.0423,-4.0537,0,-3.9534,-3.9682,-3.9709,-3.9839,-3.9912,-3.992,-3.9995,-4.0055,-4.009,-4.016,-4.02,-4.028,-4.026,-4.029,-4.0347,-4.0392,-4.0461,-4.0385,-4.0484,-4.0487,-4.046,-4.0589,-4.0596,-4.0701,-4.0553,-4.0556,-4.0557,0,-3.9683,-3.9751,-3.9887,-3.9959,-3.9991,-4.0057,-4.0136,-4.0202,-4.0271,-4.0293,-4.035,-4.0364,-4.0454,-4.0415,-4.054,-4.0487,-4.0531,-4.0559,-4.0564,-4.0571,-4.0524,-4.0596,-4.0735,-4.0749,-4.0582,-4.058,-4.0578,0,-3.9751,-3.9878,-3.9975,-4.001,-4.0097,-4.0143,-4.0182,-4.0248,-4.0297,-4.0368,-4.0399,-4.0481,-4.0525,-4.0589,-4.0625,-4.0594,-4.0747,-4.0711,-4.0766,-4.0765,-4.0795,-4.0792,-4.0939,-4.0829,-4.0829,-4.0829,-4.0828,0,-3.9871,-3.9953,-4.0006,-4.0065,-4.0157,-4.019,-4.0281,-4.032,-4.0379,-4.0447,-4.0462,-4.0526,-4.0571,-4.0642,-4.0672,-4.0769,-4.079,-4.081,-4.0816,-4.0806,-4.0803,-4.0832,-4.0825,-4.0833,-4.0832,-4.0831,-4.083,0,-3.9961,-4.0,-4.0105,-4.0179,-4.0199,-4.0264,-4.0328,-4.0387,-4.0422,-4.0508,-4.053,-4.0586,-4.067,-4.0713,-4.082,-4.084,-4.0948,-4.0952,-4.0923,-4.0925,-4.0977,-4.097,-4.1144,-4.1168,-4.1046,-4.1047,-4.1048,0,-4.0032,-4.0095,-4.0174,-4.0219,-4.0258,-4.0332,-4.0381,-4.0416,-4.0467,-4.055,-4.0598,-4.0683,-4.0751,-4.0886,-4.0937,-4.1018,-4.1022,-4.1078,-4.1035,-4.1022,-4.1019,-4.1013,-4.1019,-4.1084,-4.1086,-4.1087,-4.1087,0,-4.0154,-4.017,-4.0238,-4.0314,-4.0371,-4.0433,-4.0494,-4.0531,-4.0577,-4.0633,-4.0717,-4.0771,-4.0877,-4.0961,-4.1045,-4.1088,-4.1095,-4.1101,-4.1117,-4.1106,-4.1085,-4.1094,-4.094,-4.1096,-4.1095,-4.1094,-4.1094,-4.1094,-4.0235,-4.029,-4.0353,-4.0429,-4.0478,-4.0535,-4.0592,-4.0634,-4.0704,-4.0791,-4.0809,-4.0898,-4.0966,-4.108,-4.1125,-4.1196,-4.1185,-4.121,-4.1215,-4.122,-4.122,-4.1077,-4.1213,-4.1213,-4.1213,-4.1212,-4.1212,0,-4.0355,-4.0395,-4.0465,-4.0548,-4.0607,-4.0608,-4.0675,-4.0725,-4.0802,-4.0864,-4.0931,-4.1027,-4.1108,-4.1166,-4.1248,-4.1294,-4.1299,-4.1314,-4.131,-4.1319,-4.1228,-4.1203,-4.1308,-4.1308,-4.1308,-4.1308,-4.1308,-4.1308,-4.0423,-4.0515,-4.0538,-4.0655,-4.0697,-4.0781,-4.0819,-4.0872,-4.0921,-4.1027,-4.1092,-4.1129,-4.1189,-4.1276,-4.135,-4.1366,-4.1394,-4.1408,-4.1423,-4.1336,-4.1326,-4.1316,-4.1293,-4.1415,-4.1415,-4.1508,-4.1509,-4.1509]},{"header":{"parameterUnit":"m.s-1","parameterCategory":1,"la1":30.2991,"la2":30.254,"lo1":-89.0895,"lo2":-89.0444,"dy":0.0017,"dx":0.0017,"nx":28,"ny":28,"refTime":"2024-06-15T09:00:00:Z","depth":0,"parameterNumber":3,"parameterNumberName":"V-component_of_WINDS"},"data":[0,0,0,0,0,0,0,0,0,0,0,0,0,0,0,0,0,0,0,0,0,0,0,0,0,0,0,0,0,0,0,0,0,0,0,0,0,0,0,0,0,0,0,0,0,0,0,0,0,0,0,0,0,0,0,0,0,0,2.4588,2.4587,0,2.4515,2.4514,2.4514,2.4419,2.4417,2.4416,2.4414,2.4338,2.4338,2.4337,0,0,0,0,0,0,0,0,0,0,0,0,0,2.4648,2.4647,2.4588,2.4587,2.4586,2.4515,2.4514,2.4513,2.4419,2.4417,2.4415,2.4414,2.4339,2.4338,2.4337,0,0,0,0,0,0,0,0,0,0,0,0,0,2.4603,2.4647,2.4588,2.453,2.4525,2.4516,2.4514,2.4513,2.4419,2.4417,2.4415,2.4413,2.4339,2.4338,2.4337,2.4378,0,0,2.4335,2.4334,0,0,0,0,0,0,0,0,2.4606,2.4601,2.454,2.4534,2.4528,2.4474,2.4508,2.4468,2.442,2.4459,2.4414,2.4412,2.4385,2.438,2.4372,2.4375,2.4371,2.4334,2.4334,2.4334,2.4333,0,0,0,0,0,0,0,2.4609,2.4604,2.4559,2.4539,2.4532,2.4509,2.4501,2.45,2.4436,2.4456,2.4449,2.4442,2.4381,2.4373,2.4369,2.437,2.4334,2.4334,2.4333,2.4333,2.4409,2.4411,0,0,0,0,0,0,2.4621,2.4607,2.4561,2.4557,2.4562,2.451,2.45,2.4493,2.4436,2.4425,2.4444,2.4437,2.4376,2.437,2.4366,2.4412,2.4334,2.4333,2.4332,2.4406,2.4409,2.4412,0,0,0,0,0,0,2.4622,2.4618,2.4564,2.458,2.4572,2.4512,2.4505,2.4493,2.4484,2.4427,2.4415,2.4446,2.4373,2.4368,2.4377,2.4408,2.4332,2.4332,2.4403,2.4407,2.441,2.4503,0,0,0,0,0,0,2.4624,2.4619,2.4632,2.4581,2.4571,2.4575,2.4507,2.4493,2.4483,2.4474,2.4426,2.4416,2.4371,2.4379,2.4376,2.4405,2.4331,2.44,2.4405,2.4409,2.4497,2.451,2.452,0,0,0,0,0,2.4627,2.466,2.4633,2.4628,2.4587,2.4577,2.4571,2.4519,2.4486,2.45,2.4464,2.4417,2.4407,2.4381,2.4377,2.4406,2.4398,2.4403,2.4409,2.4492,2.4507,2.452,0,0,0,0,0,0,2.4713,2.4651,2.4621,2.4638,2.4614,2.4561,2.4576,2.4537,2.4521,2.4513,2.445,2.444,2.4458,2.4434,2.4406,2.4446,2.4395,2.4401,2.446,2.4474,2.4486,2.4489,2.433,0,0,0,0,0,2.4735,2.4732,2.4678,2.4699,2.4688,2.4635,2.4629,2.4592,2.4564,2.4552,2.4517,2.4492,2.4483,2.4478,2.4466,2.4496,2.4485,2.4515,2.4527,2.4536,2.454,2.4557,2.457,2.4431,2.4431,2.443,0,0,2.4777,2.4744,2.4745,2.4715,2.4692,2.4691,2.4626,2.4627,2.4626,2.4552,2.4559,2.4534,2.4502,2.4522,2.4529,2.4502,2.4578,2.4544,2.4552,2.455,2.4564,2.4578,2.459,2.4434,2.4434,2.4433,0,0,2.4855,2.4829,2.4844,2.4824,2.4791,2.4757,2.4761,2.4716,2.4696,2.4703,2.4649,2.4649,2.4634,2.4615,2.4603,2.4684,2.464,2.4682,2.4741,2.4759,2.477,2.4779,2.4808,2.4819,2.4687,2.4687,2.4688,0,2.4911,2.4907,2.4857,2.4862,2.4852,2.479,2.4806,2.4789,2.4753,2.4748,2.472,2.4705,2.4678,2.4695,2.4715,2.4708,2.4712,2.4684,2.4773,2.4781,2.4789,2.4816,2.4827,2.4693,2.4692,2.4691,2.4691,0,2.4979,2.4979,2.4995,2.4965,2.4958,2.4969,2.4922,2.4921,2.4888,2.4858,2.4869,2.4837,2.482,2.4822,2.4788,2.4836,2.4821,2.4784,2.4731,2.4809,2.4833,2.4843,2.47,2.4698,2.4697,2.4695,0,0,2.51,2.5048,2.5055,2.5042,2.5006,2.5004,2.5016,2.5001,2.5001,2.4983,2.499,2.4984,2.4952,2.4939,2.4904,2.492,2.4988,2.4881,2.488,2.4901,2.504,2.5066,2.5079,2.4962,2.4964,2.4965,2.5043,0,2.5168,2.5182,2.5141,2.5165,2.5165,2.5111,2.5121,2.5101,2.5076,2.5074,2.5047,2.5043,2.5,2.4993,2.5007,2.4977,2.5015,2.4971,2.4969,2.4969,2.4974,2.5091,2.5116,2.519,2.5052,2.5054,2.5055,0,2.5246,2.5234,2.526,2.5227,2.5225,2.5235,2.5221,2.522,2.5198,2.5179,2.517,2.5131,2.5143,2.5097,2.5113,2.5085,2.5083,2.507,2.5071,2.5065,2.5013,2.5086,2.5213,2.5223,2.5069,2.5068,2.5067,0,2.5331,2.5321,2.5336,2.5328,2.529,2.5298,2.5283,2.526,2.5255,2.5245,2.5242,2.5233,2.5227,2.5222,2.5184,2.5154,2.5206,2.5156,2.519,2.5191,2.5198,2.5198,2.5324,2.5203,2.5203,2.5203,2.5203,0,2.5408,2.5426,2.5374,2.5382,2.5402,2.5358,2.538,2.5359,2.5341,2.5346,2.5301,2.5307,2.5258,2.526,2.5231,2.525,2.5248,2.5234,2.5225,2.5236,2.5237,2.523,2.5223,2.5206,2.5205,2.5205,2.5204,0,2.5502,2.5468,2.5481,2.5447,2.5439,2.5456,2.5427,2.5435,2.5411,2.5419,2.5419,2.538,2.5381,2.5345,2.5338,2.5319,2.535,2.5334,2.5357,2.535,2.5387,2.5383,2.5509,2.5524,2.5397,2.5399,2.54,0,2.5551,2.5564,2.5534,2.5535,2.5523,2.5525,2.5522,2.5482,2.5481,2.5463,2.5474,2.5472,2.5467,2.5473,2.5445,2.5441,2.5423,2.5468,2.5421,2.5434,2.5422,2.5421,2.5423,2.5476,2.5477,2.5479,2.548,0,2.5643,2.5628,2.5624,2.5618,2.5617,2.5609,2.5599,2.5603,2.5561,2.5563,2.5564,2.5562,2.5558,2.5557,2.555,2.5536,2.5502,2.5497,2.5504,2.5512,2.5525,2.5518,2.538,2.5492,2.549,2.549,2.5489,2.5488,2.5714,2.5725,2.5706,2.5706,2.5696,2.569,2.5697,2.5676,2.5677,2.5671,2.5649,2.5656,2.5641,2.5628,2.5619,2.5625,2.5603,2.5614,2.5616,2.5618,2.5625,2.5529,2.5624,2.5623,2.5623,2.5623,2.5623,0,2.5802,2.579,2.5791,2.578,2.5782,2.5754,2.5743,2.5746,2.5753,2.5742,2.5741,2.5746,2.5748,2.5724,2.5723,2.5733,2.5718,2.5734,2.5731,2.5729,2.5645,2.5638,2.5747,2.5747,2.5747,2.5747,2.5747,2.5747,2.5847,2.5864,2.5848,2.5862,2.5849,2.5856,2.5853,2.5848,2.584,2.5848,2.585,2.5836,2.5821,2.5821,2.5822,2.5816,2.5817,2.5839,2.5826,2.5747,2.5734,2.5723,2.5716,2.584,2.584,2.591,2.5911,2.5911]}]]